Location: Newark
(55.7600°N, 37.6133°E)
Time: 12:58:38
(UTC+00:00)

ISS - Visible Passes

Search period start: 21 October 2019 00:00
Search period end: 31 October 2019 00:00
Orbit: 411 x 421 km, 51.6° (Epoch: 21 October)

Date Brightness Start Highest point End Pass type
(mag) Time Alt. Az. Time Alt. Az. Time Alt. Az.
26 Oct -0.9 03:17:43 10° S 03:19:46 15° SSE 03:21:48 10° ESE visible
27 Oct -0.7 02:30:22 10° SSE 02:31:24 11° SE 02:32:26 10° SE visible
28 Oct -1.7 03:16:06 10° SSW 03:18:53 24° SSE 03:21:40 10° ESE visible
29 Oct -1.4 02:28:20 12° SSW 02:30:25 19° SSE 02:32:53 10° ESE visible
30 Oct -1.1 01:41:55 14° SSE 01:41:58 14° SSE 01:43:54 10° ESE visible
30 Oct -2.4 03:14:57 10° SW 03:18:03 34° SSE 03:21:08 10° E visible
